Location: Bouchavesnes-Bergen
(49.9859°N, 2.9203°E)
Time: 10:30:44
(UTC+00:00)

Cosmos 1745 Rocket - Pass Details

Date: 09 March 2021
Orbit: 954 x 997 km, 83.0° (Epoch: 12 April)

Event Time Altitude Azimuth Distance (km) Brightness Sun altitude
Rises 03:15:47 0° 349° (N) 3,698 7.3 -28.6°
Reaches altitude 10° 03:18:18 10° 349° (N) 2,752 6.6 -28.2°
Maximum altitude 03:24:37 84° 264° (W) 1,003 3.9 -27.3°
Enters shadow 03:26:30 49° 180° (S) 1,259 4.3 -27.0°
